Wind_Speed
24 25 27 27 25 24 23 20 19 19 19 18 20 22 22 21 22 24 26 29 29 31 31 32 31 29 29 29 27 26 21 21 26 30 25 22 27 25 27 31 33 40 41
26 26 28 27 28 26 24 23 21 21 18 19 21 22 24 25 23 25 29 30 33 34 31 30 32 29 27 22 25 24 24 27 27 32 31 32 36 29 26 32 33 42 39
27 26 26 28 26 24 22 22 21 18 16 19 20 26 27 26 25 26 28 30 31 31 30 30 27 27 26 29 28 28 25 26 28 28 32 32 28 29 32 35 39 39 37
27 27 27 28 25 22 22 22 20 16 17 18 24 27 27 25 25 26 26 26 28 31 33 32 29 26 26 23 29 30 29 28 30 30 31 32 29 30 37 43 46 41 41
29 28 28 29 24 23 24 22 19 17 20 28 27 26 22 25 26 27 30 28 27 29 30 25 23 22 21 25 27 29 31 30 30 29 28 30 30 34 44 45 48 44 39
29 30 29 24 28 26 23 19 18 20 24 25 24 21 21 22 24 30 24 25 24 25 26 23 20 20 22 26 26 28 28 26 23 22 25 31 34 40 48 51 53 48 42
25 26 26 28 27 24 19 16 13 13 19 20 17 17 22 23 21 23 21 24 23 23 24 23 23 21 25 22 26 25 23 20 20 18 18 26 34 45 51 49 50 51 43
24 24 23 24 20 15 12 10 12 13 12 13 20 20 20 21 18 18 24 25 21 20 20 22 23 23 21 20 21 21 19 17 17 16 17 21 30 43 49 50 49 41 40
24 23 20 18 15 11 9 9 9 12 17 16 14 17 19 19 19 19 18 21 19 19 17 20 24 22 19 17 19 17 15 14 11 10 12 15 24 40 44 47 46 42 41
22 18 15 13 12 12 10 9 11 10 11 13 16 18 18 16 17 19 19 21 22 21 19 16 17 17 18 17 17 14 13 13 10 9 9 14 20 34 41 43 45 43 40
17 16 15 12 10 9 8 9 8 12 16 16 20 19 18 19 17 21 20 22 21 21 21 18 17 17 19 17 15 11 10 10 7 8 10 18 28 35 39 40 40 39 35
17 14 12 12 12 11 10 9 11 14 14 15 19 17 18 19 20 19 18 19 19 19 21 20 17 18 20 18 14 11 12 9 9 11 15 26 34 35 35 34 33 27 28
16 17 16 15 14 14 15 15 16 13 14 14 14 16 18 18 17 16 17 16 15 17 15 14 16 15 16 17 14 13 13 13 12 16 20 27 31 31 32 32 31 27 28
13 13 13 13 14 16 17 19 18 15 14 15 14 16 14 13 14 15 15 15 16 16 13 13 14 14 15 16 15 14 14 15 15 16 21 26 30 34 37 34 29 24 23
7 6 6 7 12 14 15 12 14 14 15 15 15 13 12 12 13 14 14 14 15 10 10 10 11 15 17 19 17 15 14 12 16 18 20 27 33 37 38 35 31 27 26
7 6 8 14 15 14 14 15 15 18 15 15 14 13 11 12 13 14 14 12 10 8 8 9 10 14 19 21 19 18 18 15 14 16 19 23 29 36 38 36 34 31 27
12 14 16 18 15 15 16 15 14 11 12 13 10 10 11 10 11 14 12 10 8 8 8 9 10 12 17 20 20 20 19 15 14 15 19 23 26 30 35 38 38 33 29
15 18 17 16 14 15 16 14 12 13 14 13 12 12 11 11 10 11 10 9 8 8 9 10 11 11 14 17 21 22 20 16 15 18 19 22 26 28 33 35 38 39 34
13 13 12 13 12 12 12 13 13 13 14 15 16 14 11 9 11 11 9 8 8 8 9 9 10 11 13 14 17 20 19 16 15 17 20 20 23 25 30 32 36 37 36
11 12 12 13 12 10 12 14 13 14 16 18 19 16 14 11 10 10 9 7 9 9 9 9 9 10 12 14 17 19 18 17 17 17 18 20 21 22 26 30 35 37 35
8 9 11 12 12 10 10 12 11 11 13 15 18 16 15 13 12 11 10 10 9 10 10 11 11 10 11 12 14 16 17 18 19 19 18 18 20 20 21 26 31 34 34
10 8 9 11 11 12 11 11 10 10 10 12 14 15 15 15 14 13 13 13 11 11 11 12 12 11 11 12 14 15 16 17 18 19 20 21 20 19 20 21 25 29 32
6 8 9 9 9 12 12 12 12 12 12 11 12 13 13 14 14 15 15 15 13 13 13 12 14 13 12 11 11 14 17 17 17 17 20 21 22 21 20 20 21 23 28
9 8 10 10 10 11 13 13 12 12 11 11 12 13 13 13 13 13 13 10 13 14 13 14 13 13 14 13 12 12 13 15 16 16 16 18 18 20 21 22 21 21 23
12 13 11 11 12 12 12 11 13 13 12 13 13 11 12 12 12 13 13 13 12 14 14 14 14 14 14 13 15 16 16 16 15 15 15 16 18 20 20 21 22 24 25
17 15 14 14 13 12 14 13 13 13 14 14 13 12 12 12 13 12 12 12 12 12 13 14 14 14 14 14 14 16 19 18 18 17 17 17 18 19 19 20 20 20 23
Wind_Direction
208 205 201 200 202 204 214 219 226 238 247 255 276 276 280 281 281 284 280 279 274 270 271 270 275 277 275 268 261 261 260 266 275 276 272 259 272 268 257 242 228 214 193
210 207 204 204 212 214 219 226 234 242 244 275 285 284 281 286 284 279 277 276 274 274 270 268 270 277 281 258 256 263 274 281 273 274 275 266 263 266 246 231 208 201 198
212 210 211 210 214 216 218 224 231 231 265 288 288 286 288 289 286 280 276 277 276 273 271 262 263 277 253 246 264 270 267 275 277 275 274 271 260 245 229 218 203 201 196
216 214 213 218 214 213 217 224 226 247 280 284 282 286 290 287 284 281 279 278 278 278 269 266 268 250 259 268 266 269 277 280 284 282 266 262 255 228 213 198 179 190 185
217 217 215 218 209 210 221 221 237 273 278 285 285 289 287 284 285 280 271 283 280 281 272 276 261 256 269 270 275 279 279 284 283 275 261 246 228 203 188 183 180 176 176
219 217 210 197 210 215 215 224 254 266 279 280 290 290 294 292 281 275 286 288 282 271 274 268 255 275 261 273 281 277 280 283 276 269 262 243 229 207 189 185 183 175 161
217 212 203 207 205 211 219 237 250 263 279 291 293 290 291 298 299 282 286 287 285 276 272 263 255 262 274 271 282 280 283 275 266 267 271 246 220 200 192 179 178 179 173
207 203 199 202 201 205 216 232 254 279 290 282 283 289 291 289 290 286 291 289 282 278 271 260 260 272 264 273 277 281 284 263 268 259 265 262 233 201 195 191 177 172 172
199 197 193 190 192 199 222 243 264 281 282 287 287 287 299 295 293 286 288 286 283 283 279 267 268 268 258 273 279 281 271 260 266 244 254 253 226 200 190 182 175 177 167
192 194 195 196 198 206 220 249 275 278 275 271 282 297 300 292 288 289 290 284 285 285 282 275 280 259 262 270 272 276 258 255 263 224 224 208 208 200 197 198 192 181 172
187 190 192 197 204 218 237 251 256 264 269 272 286 291 293 290 282 284 283 283 284 279 280 281 279 263 254 264 263 264 242 251 237 206 196 187 186 187 188 191 191 195 187
181 189 198 209 224 243 251 249 253 261 263 276 290 292 295 295 296 292 288 286 289 282 274 266 273 263 254 252 246 236 223 229 214 192 186 180 182 185 189 195 191 187 179
200 208 218 233 244 259 263 259 264 262 268 277 271 284 295 297 298 295 291 289 295 294 285 263 258 251 242 241 224 222 221 216 216 195 189 188 192 191 182 177 186 191 187
214 222 237 252 266 273 276 275 264 259 271 279 276 288 296 300 297 294 288 288 292 291 280 267 252 247 236 220 216 215 221 222 223 205 195 190 194 192 186 187 187 177 182
202 217 234 247 269 275 280 274 266 270 269 269 274 286 296 300 302 296 291 288 294 277 264 262 247 227 220 211 209 210 206 202 210 210 202 196 196 196 196 194 193 185 188
240 251 258 262 270 262 261 274 275 278 261 254 265 274 279 295 305 301 284 284 284 263 258 251 244 232 220 215 212 211 207 205 207 208 207 204 201 200 200 199 198 197 193
267 265 267 271 267 255 256 271 281 255 234 245 264 279 271 283 305 317 296 279 272 254 249 244 243 236 232 224 219 216 208 207 215 212 210 209 206 202 202 204 201 198 189
275 275 270 265 256 260 257 264 269 249 240 241 255 267 269 276 287 297 306 285 265 248 249 244 239 240 238 234 224 218 216 219 224 216 214 211 212 213 207 206 204 201 194
268 271 270 263 259 262 253 259 264 258 245 246 251 257 265 275 279 282 293 286 272 257 250 242 239 240 239 230 224 219 222 226 229 220 216 214 212 211 212 210 205 200 196
269 271 267 255 255 260 245 255 269 268 253 249 246 255 256 261 273 281 283 276 270 257 242 242 246 240 236 227 222 221 225 231 224 219 217 211 210 213 214 209 205 199 197
259 265 272 250 253 250 253 258 268 270 256 256 243 241 250 255 258 270 276 269 264 262 247 239 242 245 238 230 220 220 222 220 217 217 214 208 205 205 210 214 211 206 204
269 277 267 254 255 256 255 261 266 264 262 252 240 240 253 255 255 259 272 272 258 252 243 239 237 240 241 238 230 220 217 218 220 220 219 215 208 205 206 210 214 214 209
275 270 279 281 261 262 259 261 263 261 259 255 246 245 247 257 264 270 268 266 250 251 242 238 234 236 230 231 230 229 229 228 228 228 223 218 211 206 205 206 208 211 213
292 281 284 288 275 267 261 260 258 261 252 251 248 256 261 271 271 259 265 266 243 244 241 235 233 232 230 226 227 225 223 225 223 224 222 221 220 218 217 215 216 213 210
284 290 290 287 279 268 266 258 255 257 252 250 258 253 261 261 259 254 254 254 251 244 239 232 230 228 231 228 226 227 227 226 223 222 220 221 222 226 225 223 222 218 211
273 284 284 284 284 268 264 258 256 249 253 247 248 251 253 250 256 256 243 239 242 241 237 231 229 227 226 226 224 223 227 228 224 222 220 221 221 223 224 225 225 221 221
Height
1448 1449 1450 1452 1453 1457 1459 1463 1465 1467 1469 1470 1471 1470 1469 1469 1469 1468 1467 1465 1463 1461 1458 1454 1453 1454 1453 1453 1452 1454 1453 1453 1451 1449 1449 1446 1449 1453 1454 1456 1459 1463 1468
1443 1445 1445 1447 1448 1451 1453 1456 1458 1460 1462 1465 1464 1464 1462 1461 1461 1459 1459 1457 1455 1453 1451 1449 1446 1445 1445 1447 1446 1446 1446 1446 1446 1443 1442 1442 1443 1447 1448 1451 1454 1459 1463
1438 1440 1441 1442 1445 1446 1449 1451 1453 1455 1456 1456 1457 1456 1456 1456 1454 1452 1450 1448 1446 1442 1441 1440 1440 1441 1440 1438 1440 1436 1439 1439 1439 1437 1436 1437 1438 1439 1442 1447 1449 1454 1461
1433 1433 1435 1436 1440 1443 1445 1447 1449 1450 1451 1451 1450 1450 1449 1448 1447 1443 1440 1437 1436 1435 1433 1432 1432 1433 1434 1433 1433 1434 1433 1432 1431 1429 1429 1429 1431 1434 1438 1439 1446 1450 1457
1425 1428 1429 1429 1433 1435 1438 1440 1444 1446 1445 1444 1442 1441 1443 1439 1439 1438 1432 1430 1428 1427 1425 1425 1425 1426 1427 1427 1427 1427 1427 1425 1423 1422 1422 1423 1424 1428 1431 1436 1440 1447 1456
1416 1421 1424 1423 1424 1428 1431 1435 1438 1437 1437 1437 1437 1438 1436 1435 1433 1428 1426 1424 1420 1419 1419 1419 1420 1420 1421 1422 1422 1421 1420 1418 1417 1417 1416 1416 1418 1421 1426 1429 1433 1441 1454
1412 1417 1420 1415 1418 1422 1425 1429 1430 1431 1431 1433 1435 1432 1429 1429 1427 1426 1423 1418 1416 1413 1413 1414 1415 1414 1415 1416 1416 1415 1413 1412 1413 1413 1413 1413 1414 1417 1421 1427 1433 1440 1446
1410 1414 1416 1416 1419 1421 1424 1426 1427 1425 1425 1426 1425 1424 1423 1421 1419 1419 1421 1418 1411 1409 1407 1408 1410 1410 1410 1411 1410 1409 1408 1408 1408 1408 1410 1411 1413 1416 1421 1425 1433 1441 1450
1405 1408 1410 1411 1413 1417 1423 1424 1423 1421 1421 1419 1419 1417 1415 1416 1415 1413 1410 1412 1409 1406 1405 1403 1404 1404 1405 1406 1406 1405 1404 1405 1405 1406 1408 1409 1412 1417 1422 1427 1434 1440 1449
1402 1408 1409 1411 1411 1411 1413 1415 1412 1415 1416 1414 1413 1412 1410 1409 1409 1408 1405 1408 1405 1402 1401 1398 1400 1401 1402 1402 1402 1402 1402 1403 1403 1405 1407 1409 1413 1418 1423 1429 1433 1440 1447
1398 1402 1405 1406 1409 1409 1409 1409 1409 1409 1412 1409 1408 1407 1405 1404 1402 1401 1400 1401 1400 1398 1397 1395 1396 1397 1398 1399 1399 1399 1400 1401 1403 1404 1406 1410 1414 1419 1426 1432 1437 1442 1447
1392 1396 1399 1401 1403 1403 1405 1407 1408 1405 1404 1403 1401 1402 1400 1400 1397 1395 1395 1395 1395 1392 1391 1391 1392 1393 1393 1395 1396 1397 1398 1400 1402 1405 1408 1411 1415 1420 1427 1433 1439 1444 1450
1386 1389 1393 1394 1395 1400 1401 1401 1399 1400 1401 1396 1395 1396 1395 1394 1393 1391 1391 1390 1390 1389 1386 1386 1387 1388 1390 1392 1393 1395 1396 1399 1401 1404 1408 1412 1417 1423 1429 1433 1439 1444 1449
1385 1388 1389 1392 1393 1393 1393 1394 1395 1393 1390 1394 1391 1391 1388 1390 1388 1387 1387 1387 1386 1385 1383 1383 1383 1385 1387 1389 1391 1393 1395 1398 1400 1403 1407 1412 1417 1423 1428 1432 1436 1443 1448
1384 1387 1388 1389 1388 1387 1388 1389 1391 1391 1385 1390 1390 1388 1386 1385 1384 1383 1383 1383 1382 1381 1380 1380 1381 1382 1384 1387 1389 1391 1394 1396 1399 1402 1406 1410 1415 1421 1426 1431 1436 1441 1445
1385 1384 1384 1384 1383 1385 1384 1384 1386 1386 1382 1385 1385 1385 1385 1383 1381 1381 1380 1380 1379 1378 1378 1378 1379 1380 1382 1384 1386 1389 1393 1396 1398 1401 1404 1408 1412 1418 1423 1429 1435 1439 1444
1378 1381 1380 1378 1378 1379 1380 1379 1376 1379 1378 1380 1381 1382 1383 1382 1379 1379 1378 1377 1376 1376 1376 1377 1377 1379 1381 1383 1385 1387 1391 1394 1398 1400 1402 1406 1411 1415 1420 1425 1431 1437 1442
1372 1372 1375 1376 1373 1373 1374 1376 1374 1376 1374 1374 1376 1380 1380 1378 1378 1378 1376 1375 1375 1375 1375 1375 1376 1377 1379 1381 1383 1386 1389 1392 1395 1398 1400 1404 1408 1412 1417 1421 1426 1432 1438
1368 1368 1367 1370 1370 1369 1371 1372 1370 1369 1369 1371 1374 1376 1377 1376 1376 1376 1374 1374 1373 1373 1374 1374 1375 1375 1377 1379 1381 1384 1387 1390 1393 1395 1399 1402 1405 1409 1414 1418 1423 1428 1434
1363 1364 1365 1366 1366 1366 1365 1368 1367 1366 1365 1367 1370 1371 1373 1373 1374 1373 1373 1373 1372 1372 1372 1373 1373 1374 1376 1376 1379 1382 1384 1387 1390 1393 1396 1399 1403 1406 1411 1415 1420 1425 1430
1360 1362 1361 1362 1362 1361 1363 1364 1362 1363 1362 1364 1366 1368 1369 1370 1371 1371 1371 1371 1371 1370 1371 1371 1372 1373 1374 1375 1377 1379 1381 1384 1388 1391 1394 1397 1400 1404 1408 1413 1417 1423 1427
1357 1358 1360 1359 1359 1359 1359 1359 1360 1360 1359 1361 1363 1364 1365 1367 1367 1368 1368 1368 1368 1369 1369 1370 1370 1372 1373 1374 1375 1377 1380 1383 1385 1388 1392 1395 1399 1402 1406 1410 1415 1419 1424
1356 1357 1357 1356 1355 1356 1356 1356 1357 1357 1357 1359 1360 1361 1362 1363 1364 1364 1364 1364 1365 1366 1367 1368 1369 1370 1371 1373 1374 1376 1379 1381 1384 1386 1389 1393 1397 1400 1403 1407 1411 1415 1419
1356 1355 1355 1353 1353 1353 1353 1353 1353 1354 1355 1356 1357 1358 1359 1359 1359 1360 1361 1361 1362 1363 1364 1365 1366 1368 1369 1371 1373 1375 1377 1380 1382 1385 1388 1391 1394 1397 1401 1405 1409 1412 1416
1353 1352 1351 1350 1350 1350 1349 1350 1351 1351 1352 1352 1353 1354 1355 1356 1356 1357 1358 1359 1359 1360 1361 1362 1364 1365 1367 1369 1371 1374 1376 1378 1381 1383 1386 1388 1392 1395 1398 1401 1405 1409 1413
1350 1349 1348 1347 1346 1346 1346 1346 1347 1347 1348 1349 1350 1351 1352 1353 1353 1354 1355 1356 1356 1358 1359 1360 1361 1363 1365 1366 1368 1370 1373 1375 1378 1381 1383 1386 1389 1391 1394 1398 1401 1405 1408